CAPE
13 3 26 178 131 178 134 137 182 224 179 309 180 243 265 149 109 2 0 0 0 197 757 1428 2076 2146 1728 2250 2415 2131 1957 2069 2416 2026 2217 2160 2077 2215 2047 2073 2132 2032 2070 1973 1523 1571 1556 1510 1546
8 36 284 454 539 3 36 159 245 275 278 129 119 173 119 10 83 6 0 0 28 182 1132 1588 2452 2380 1960 2194 2465 2452 2009 1937 2361 2436 2255 1807 1562 1591 1810 2037 2052 1912 1769 1696 1678 1613 1544 1509 1312
36 107 299 311 162 10 64 125 161 194 285 309 266 114 107 8 1 0 0 0 13 274 1021 1524 2471 2718 2342 2411 2410 2640 2233 1991 1995 1974 1862 1946 1880 1847 1588 1441 1601 1814 1833 1721 1589 1514 1507 1469 1482
129 384 301 343 64 107 78 117 227 361 362 232 143 93 0 0 0 0 0 0 113 873 1173 1936 2101 2416 2436 2452 2378 2098 2069 2084 2090 2024 1934 1950 1881 1882 1965 2050 1648 1616 1587 1542 1517 1459 1405 1467 1470
510 274 152 76 38 75 120 210 271 284 352 261 208 38 0 0 0 0 0 20 510 858 1253 1520 2546 2764 2462 2506 2062 2179 2044 1945 2017 2149 1922 1914 1884 2098 1831 1767 1749 1757 1702 1573 1486 1469 1458 1431 1737
572 52 43 72 6 72 93 154 326 404 405 393 116 73 61 0 0 7 41 172 545 834 1253 1256 2045 2492 2635 2199 1859 2338 2070 1765 2035 2249 1828 1878 1960 2187 2573 1740 1625 1575 1587 1612 1637 1598 1720 1842 1658
523 311 64 8 56 85 130 89 397 506 371 203 223 255 96 0 0 0 35 120 535 871 1022 1191 1340 1278 2008 2410 2095 2082 1800 1728 1779 1802 1724 1644 1654 1775 1883 1909 1856 1641 1604 1492 1490 1623 2080 2049 1790
405 293 96 162 169 183 77 40 424 534 410 226 170 225 174 11 0 8 80 267 340 751 863 1023 1196 1361 1776 1793 1971 1889 1778 1728 1704 1653 1582 1539 1497 1516 1691 2261 2163 1515 1567 1562 1514 1620 1941 1942 1984
447 257 20 184 179 140 26 102 191 432 494 496 401 309 153 8 12 111 183 188 331 424 455 722 1433 1088 1076 1135 1319 1806 1722 1845 1740 1617 1612 1785 1237 1258 1347 1780 2390 1654 1634 1610 1653 1893 1818 1906 1877
401 34 184 217 186 96 47 28 304 488 633 615 545 179 31 61 142 201 280 125 96 178 482 417 1213 922 787 962 1238 1247 1355 1415 1308 1238 1025 1059 1235 1313 1622 1973 2606 2167 1808 1835 1982 1867 1813 1545 1352
34 30 98 4 50 113 11 39 42 535 579 491 140 122 175 222 147 168 217 51 0 59 282 152 864 701 657 694 971 1144 1131 1155 1189 384 639 850 1403 1410 1432 1306 1574 1396 1080 26 688 548 395 1429 1467
16 68 56 41 95 27 26 33 29 299 682 586 135 93 267 202 155 230 59 1 0 7 57 39 332 556 362 204 531 861 787 838 1312 1018 843 879 977 1158 883 1097 1523 1108 741 503 830 618 873 920 1244
12 44 30 82 98 87 114 35 35 857 750 557 291 279 304 251 153 197 108 45 20 0 3 5 97 538 353 171 308 625 556 555 1155 1453 1260 1337 843 753 1132 949 927 836 771 817 845 1047 1069 954 642
0 20 75 57 18 186 272 111 57 824 658 524 418 348 328 275 291 132 152 81 6 0 0 148 67 975 868 710 1032 1198 450 573 1324 1324 1198 1099 697 920 1150 1339 1000 1192 902 386 1036 1150 905 1090 663
2 5 107 108 86 142 212 211 118 180 556 487 470 401 330 326 343 232 195 113 360 94 244 147 294 814 499 710 874 1048 807 227 765 1363 1189 1052 1259 1279 1208 746 1426 1255 1184 1036 1129 1587 986 424 457
0 1 4 35 99 142 148 151 25 75 300 465 544 494 460 346 330 261 200 209 353 278 507 369 285 615 742 692 808 1336 804 563 27 979 845 750 990 1706 1060 966 1036 1007 1311 1299 1368 1112 539 204 322
0 0 0 3 49 136 124 45 18 30 165 368 490 589 478 430 414 362 226 289 184 207 278 551 434 420 882 837 1185 889 951 1080 607 434 701 730 1042 1800 1436 920 749 833 992 635 919 589 779 1104 939
0 0 2 0 13 89 113 35 102 62 216 344 367 426 522 489 417 435 514 487 127 237 144 97 513 446 646 857 1306 756 740 1103 243 497 780 1195 1348 1746 1525 1095 606 699 1380 983 1383 649 986 650 4
0 0 3 5 30 56 105 53 83 157 175 304 212 173 322 505 494 480 624 570 378 287 276 134 539 672 570 1028 862 1281 738 774 116 178 1312 1560 1550 1542 1645 1426 1074 1093 1155 1160 1064 733 798 184 0
0 0 0 3 43 79 192 154 91 50 59 61 146 254 182 261 293 443 433 467 395 410 96 540 385 835 630 1075 646 1090 975 534 322 219 333 1653 1844 2087 1807 1575 1243 1371 1162 1432 1169 1251 578 481 74
0 0 0 0 1 88 180 131 62 11 26 49 215 295 244 150 192 294 159 152 103 440 300 161 658 1268 826 1035 931 783 918 448 455 258 84 1506 1288 1844 1908 1520 1351 1203 1128 1209 935 1006 542 319 0
0 0 0 0 13 70 37 81 97 93 96 45 208 290 166 137 145 243 153 176 213 359 534 201 920 1268 1045 1191 1051 763 442 529 736 136 274 913 1783 2195 2012 1725 1489 1369 1393 1290 1020 1158 816 423 185
0 0 0 0 7 19 59 56 98 88 1 127 207 351 273 213 131 187 171 194 180 278 486 472 510 1390 1310 1078 889 959 712 643 204 401 213 610 1316 1401 2529 1895 1544 1672 1527 1426 1078 1349 1484 1021 337
0 0 0 0 1 0 0 35 40 54 51 129 338 484 375 344 253 169 250 179 192 363 571 705 583 969 1099 1214 1117 648 763 564 395 187 274 679 1850 1718 1866 2221 1784 2077 1709 1406 1341 1316 1127 834 1512
0 0 0 0 0 0 0 8 0 35 60 184 488 622 542 463 459 388 379 191 243 364 536 817 781 783 1390 973 730 1279 793 642 219 183 316 954 2035 1760 1881 2110 2108 1916 1676 1777 1718 1547 1450 1249 1002
0 0 0 0 0 0 0 0 0 0 10 27 489 482 609 548 544 552 504 455 215 242 510 788 944 853 1023 1503 1035 550 1121 1198 544 821 301 350 1251 1810 1526 1876 2355 1958 1801 1766 1976 1551 1991 1675 1273
0 0 0 0 0 0 0 0 0 0 0 0 24 537 605 583 622 625 582 602 396 245 425 688 1017 1002 1110 1206 1452 1286 644 1357 1558 388 849 1345 609 1270 1663 1702 1720 2416 1941 1651 1561 2493 2014 2271 1808
0 0 0 0 0 0 0 0 0 0 2 0 6 11 225 512 730 676 634 650 539 398 343 482 1089 1209 1336 1319 1457 1586 1540 813 1519 1629 533 537 935 1414 1133 1856 1663 2204 2448 2124 1820 2102 2611 1997 2200
0 0 0 0 0 0 0 0 0 0 0 13 0 1 80 260 754 764 686 678 625 494 432 464 692 1412 1609 1739 1428 1834 2085 1768 1063 1608 1865 752 708 1113 2862 2329 2146 2074 2097 2557 2323 1792 2382 2612 2327
0 0 0 0 0 0 0 0 0 0 0 0 0 0 32 126 863 877 817 709 665 566 545 515 753 1263 1595 1745 1925 1619 1983 2459 2059 1156 1312 1932 956 1327 1528 2747 2607 2365 2215 2083 2418 2413 2287 2234 2493
CIN
-109 -14 -22 -9 -3 -4 -23 -40 -31 -41 -27 -23 -11 -45 -92 -73 -97 -85 0 0 -2 -7 -2 0 0 0 0 0 0 0 0 0 0 0 0 0 0 0 0 0 0 0 0 0 -4 -5 -4 -5 -4
-169 -56 -5 -1 0 -1 -1 -12 -18 -68 -31 -38 -35 -38 -84 -87 -75 0 0 0 -40 -19 -1 -1 0 0 0 0 0 0 0 0 0 0 0 0 0 0 0 0 0 0 0 0 0 0 0 -4 -18
-70 -11 -2 -1 -12 -2 -1 -18 -38 -6 -20 -48 -53 -68 -102 -6 -31 0 0 0 -50 -9 -5 -1 0 0 0 0 0 0 0 0 0 0 0 0 0 0 0 -1 0 0 0 0 0 0 -1 -5 -15
-16 -8 -13 -5 -17 -74 -2 -13 -18 -10 -33 -63 -92 -107 0 0 0 0 0 0 -54 -10 -8 0 0 0 0 0 0 0 0 0 0 0 0 0 0 0 0 0 0 0 0 0 0 -3 -9 -11 -18
-6 -16 -6 -18 -80 -43 -73 -39 -12 -47 -68 -48 -105 -148 0 0 0 0 0 -90 -13 -14 -6 0 0 0 0 0 0 0 0 0 0 0 0 0 0 0 0 0 0 0 0 0 -3 -5 -9 -13 -12
-3 -56 -2 -1 -42 -50 -77 -39 -9 -23 -54 -71 -38 -147 -71 0 0 -56 -103 -45 -20 -26 -2 0 0 0 0 0 0 0 -1 0 0 0 0 0 0 0 0 0 -2 -7 -8 -8 -8 -14 -11 -8 -19
-20 -10 0 -5 -32 -51 -82 -105 -33 -49 -105 -111 -135 -73 -62 0 0 0 -97 -49 -26 -17 -3 -1 -2 -1 0 0 0 0 0 -1 0 -1 -5 -6 -5 -3 -4 -4 -10 -22 -22 -19 -21 -29 -19 -17 -21
-32 -14 -7 -1 -74 -85 -27 -15 -28 -63 -76 -104 -141 -89 -94 -127 0 -37 -55 -14 -20 -20 -12 -4 -2 -1 -1 0 0 0 0 0 0 -6 -8 -16 -11 -7 -19 -11 -10 -23 -17 -17 -30 -31 -25 -27 -31
-13 -14 -25 -25 -51 -21 -88 -25 -67 -65 -111 -36 -34 -87 -92 -125 -38 -28 -15 -16 -21 -36 -40 -20 -1 -14 -16 -16 -9 -4 0 0 -9 -18 -19 -22 -34 -23 -31 -40 -21 -41 -24 -21 -31 -30 -32 -40 -42
-9 -53 -29 -51 -72 -22 -78 -40 -36 -37 -50 -70 -45 -122 -160 -101 -50 -32 -15 -64 -55 -54 -31 -42 -7 -28 -33 -28 -26 -32 -32 -28 -54 -56 -67 -75 -40 -34 -22 -32 -19 -23 -21 -13 -38 -48 -37 -56 -54
-35 -56 -70 -70 -112 -64 -11 -5 -22 -18 -57 -61 -195 -180 -111 -63 -66 -61 -37 -89 0 -82 -44 -70 -25 -38 -40 -55 -63 -60 -58 -53 -76 -98 -36 -90 -93 -41 -21 -58 -43 -42 -60 -44 -133 -206 -133 -77 -57
-91 -104 -57 -75 -69 -105 -35 -71 -13 -61 -112 -61 -244 -188 -122 -92 -74 -57 -125 -10 0 -81 -84 -118 -44 -44 -51 -98 -113 -90 -82 -76 -65 -45 -16 -50 -45 -85 -39 -42 -70 -47 -55 -168 -136 -51 -78 -161 -114
-52 -103 -69 -11 -45 -65 -84 -44 0 -87 -75 -201 -215 -139 -92 -70 -68 -51 -106 -97 -106 0 -69 -172 -72 -59 -39 -24 -80 -67 -59 -78 -51 -79 -48 -21 -80 -44 -59 -29 -33 -34 -50 -107 -20 -41 -87 -100 -9
0 -86 -47 -54 -101 -84 -32 -21 -11 -53 -114 -160 -161 -138 -81 -64 -59 -88 -56 -83 -43 0 0 -63 -87 -29 -26 -51 -70 -26 -45 -34 -46 -48 -61 -17 -55 -68 -51 -15 -60 -120 -57 -111 -12 -58 -93 -30 -55
-3 0 -40 -68 -43 -21 -30 -43 -47 -12 -70 -121 -111 -153 -77 -69 -44 -57 -59 -58 -13 -73 -80 -74 -63 -65 -43 -39 -46 -32 -45 -34 -12 -38 -43 -44 -34 -19 -103 -45 -48 -97 -87 -15 -30 -49 -54 -19 -27
0 0 -2 -4 -13 -104 -48 -132 -178 -69 -9 -52 -67 -81 -66 -82 -71 -61 -48 -35 -16 -17 -53 -77 -42 -75 -76 -80 -54 -49 -47 -24 -57 -41 -64 -38 -38 -21 -44 -11 -38 -35 -88 -24 -34 -22 -49 -75 -57
0 0 0 -5 -3 -4 -18 -14 -32 -164 -226 -19 -29 -27 -35 -57 -67 -59 -68 -41 -30 -34 -59 -54 -64 -92 -76 -77 -73 -47 -56 -42 -26 -45 -47 -62 -63 -31 -23 -31 -30 -30 -71 -38 -41 -9 -48 -28 -28
0 0 -2 0 -11 -8 -13 -66 -14 -52 -219 -116 -19 -3 -13 -26 -60 -73 -54 -42 -59 -27 -41 -94 -67 -118 -97 -85 -46 -68 -79 -46 -64 -49 -70 -92 -69 -39 -32 -24 -11 -30 -101 -78 -36 -47 -34 -47 -24
0 0 -3 -14 -12 -5 -15 -33 -11 -216 -130 -97 -63 -72 -15 -24 -15 -20 -24 -27 -34 -48 -61 -124 -91 -126 -120 -74 -79 -43 -78 -55 -101 -127 -49 -63 -77 -49 -37 -19 -15 -2 -45 -31 -28 -34 -31 -29 0
0 0 0 -2 -4 -3 -44 -19 -216 -214 -204 -121 -116 -117 -143 -31 -8 -2 -3 -10 -17 -73 -119 -73 -123 -133 -143 -93 -128 -69 -63 -99 -98 -103 -122 -57 -47 -29 -30 -16 -21 -29 -15 -27 -24 -16 -12 -35 -13
0 0 0 0 -2 -15 -45 -31 -147 -22 -4 -102 -111 -363 -212 -58 -74 -30 -24 -50 -94 -94 -149 -165 -119 -100 -139 -117 -95 -79 -50 -76 -91 -138 -167 -42 -45 -44 -18 -44 -51 -42 -34 -12 -27 -29 -35 -31 0
0 0 0 0 -17 -5 -10 -38 -66 -192 -196 -35 -52 -173 -128 -87 -96 -67 -62 -81 -118 -147 -150 -179 -104 -76 -116 -76 -97 -110 -160 -134 -115 -205 -171 -104 -20 -28 -26 -20 -35 -19 -37 -31 -15 -38 -54 -41 -54
0 0 0 0 -11 -4 -6 -14 -174 -47 -93 -40 -77 -159 -71 -135 -105 -142 -120 -140 -178 -184 -189 -175 -145 -75 -55 -106 -109 -114 -137 -133 -194 -181 -210 -149 -62 -66 -35 -34 -33 -33 -17 -24 -16 -32 -29 -31 -53
0 0 0 0 -9 0 0 -2 -5 -82 -185 -53 -58 -52 -63 -126 -80 -122 -149 -125 -169 -203 -165 -178 -185 -122 -97 -70 -128 -184 -160 -163 -196 -244 -231 -174 -60 -62 -40 -31 -51 -25 -37 -33 -38 -23 -28 -33 -32
0 0 0 0 0 0 0 -4 0 -9 -16 -128 -119 -146 -58 -71 -76 -77 -18 -199 -193 -242 -221 -181 -188 -183 -99 -130 -181 -117 -201 -184 -272 -249 -205 -130 -37 -45 -46 -34 -16 -36 -42 -36 -20 -28 -28 -57 -53
0 0 0 0 0 0 0 0 0 0 -2 -4 -51 -133 -77 -86 -90 -85 -47 -19 -171 -277 -284 -239 -241 -234 -192 -116 -196 -276 -136 -136 -229 -177 -295 -205 -66 -24 -59 -61 -43 -57 -50 -62 -12 -40 -34 -40 -65
0 0 0 0 0 0 0 0 0 0 0 0 -16 -49 -63 -79 -93 -90 -67 -43 -35 -204 -333 -317 -283 -291 -265 -246 -187 -204 -299 -180 -120 -262 -199 -103 -157 -52 -43 -61 -66 -49 -54 -69 -51 -22 -34 -14 -46
0 0 0 0 0 0 0 0 0 0 -3 0 -31 -24 -38 -58 -93 -90 -72 -51 -58 -100 -346 -364 -313 -304 -289 -272 -225 -203 -213 -310 -178 -115 -284 -237 -154 -69 -125 -51 -98 -84 -58 -76 -55 -41 -9 -26 -33
0 0 0 0 0 0 0 0 0 0 0 -16 0 -4 -30 -41 -91 -113 -77 -80 -67 -61 -113 -366 -375 -287 -255 -213 -269 -189 -155 -195 -261 -162 -114 -229 -207 -90 -44 -83 -94 -88 -77 -42 -26 -45 -13 -11 -36
0 0 0 0 0 0 0 0 0 0 0 0 0 0 -38 -26 -64 -97 -117 -107 -67 -68 -96 -150 -388 -339 -317 -289 -215 -240 -164 -107 -138 -243 -206 -116 -192 -179 -48 -39 -54 -74 -73 -62 -49 -24 -38 -39 -29
Wind_Speed
nan nan nan 6 7 4 12 6 11 8 1 3 9 5 5 3 11 nan nan nan nan 7 4 3 5 5 5 5 4 2 1 3 5 6 4 3 2 0 3 3 5 7 7 8 8 8 7 6 4
nan nan 5 5 4 nan nan 15 11 9 15 15 12 8 4 nan nan nan nan nan nan 7 3 1 4 5 4 4 4 2 2 1 3 5 4 2 1 1 3 5 6 7 8 8 8 7 7 8 5
nan 9 6 3 6 nan nan 12 12 17 13 7 5 5 4 nan nan nan nan nan nan 7 2 2 2 5 4 5 4 2 2 2 4 4 3 2 2 3 5 6 6 6 6 7 8 9 9 9 7
8 6 8 3 nan 23 nan 18 16 13 9 7 13 nan nan nan nan nan nan nan 9 8 5 2 4 5 5 6 4 4 4 3 5 5 4 2 3 4 5 7 8 8 9 11 13 14 16 15 9
9 7 7 nan nan nan 18 23 14 10 8 15 7 nan nan nan nan nan nan nan 11 9 5 2 4 4 4 4 4 5 6 5 6 6 4 4 2 5 7 7 7 9 10 12 14 16 21 21 16
9 nan nan nan nan nan nan 17 13 17 17 23 20 nan nan nan nan nan nan 14 11 10 4 3 5 4 3 4 4 4 3 5 7 7 6 5 6 9 9 7 9 13 15 17 17 18 21 22 19
8 2 nan nan nan nan 20 nan 22 17 21 18 23 13 nan nan nan nan nan 13 12 10 2 2 4 3 4 2 4 3 5 7 9 9 9 11 12 11 10 12 14 16 15 16 18 20 21 21 23
6 5 nan 24 19 8 nan nan 32 26 20 26 18 12 16 nan nan nan nan 13 12 8 3 3 6 7 6 6 4 6 9 9 12 12 12 12 14 15 16 15 16 13 11 14 17 20 19 19 21
11 12 nan 3 8 15 nan 13 22 24 29 14 10 26 23 nan nan 14 11 9 12 6 3 2 4 6 6 7 9 13 12 14 16 14 14 14 14 16 18 17 18 17 14 11 19 21 18 17 17
6 nan 4 6 2 nan nan nan 23 18 20 26 28 25 nan nan 18 16 12 13 nan 7 4 3 3 6 6 8 12 16 18 20 17 12 12 14 16 14 19 17 20 15 7 7 17 19 16 15 12
nan nan nan nan nan 7 nan nan nan 22 21 33 32 28 25 23 16 16 14 nan nan nan 2 4 5 6 8 8 15 18 20 20 12 10 10 13 15 16 13 11 12 5 3 nan 22 17 14 13 14
nan nan nan nan nan nan nan nan nan 22 14 26 30 nan 22 20 14 11 nan nan nan nan nan nan 5 5 8 9 14 13 19 17 13 13 12 11 12 11 12 11 13 9 27 22 21 18 19 17 16
nan nan nan nan nan nan 18 nan nan 37 24 24 26 23 22 19 17 12 13 nan nan nan nan nan nan 6 7 9 13 13 15 13 11 11 11 7 15 16 12 13 9 6 19 19 19 22 16 16 15
nan nan nan nan nan 6 10 14 nan 30 28 27 27 23 20 17 17 13 9 nan nan nan nan 2 nan 5 8 11 11 13 9 7 8 9 7 12 20 13 11 13 15 20 23 21 20 19 17 16 15
nan nan 5 4 nan 8 7 18 30 14 25 27 23 25 22 15 14 11 7 6 4 nan 8 5 1 8 9 11 12 13 10 4 5 8 9 10 10 12 8 11 13 16 18 18 16 14 16 19 16
nan nan nan nan nan 7 16 19 nan nan 14 28 22 22 21 19 17 13 9 5 3 7 8 6 2 7 9 8 10 13 10 7 nan 5 8 9 8 9 11 9 13 14 20 16 13 14 15 15 20
nan nan nan nan nan 17 16 nan nan nan 19 14 25 18 21 17 18 15 12 5 0 5 7 6 4 3 7 7 9 11 11 9 6 4 6 8 8 10 9 13 16 15 16 14 13 14 16 18 22
nan nan nan nan nan nan 25 nan 20 nan 24 17 9 8 19 18 15 14 14 9 3 7 8 nan 7 5 4 8 8 10 10 9 5 5 5 7 8 10 10 13 14 13 16 14 14 12 11 15 nan
nan nan nan nan nan nan 14 nan nan 13 20 29 14 14 7 18 14 11 9 5 4 10 10 5 11 7 7 8 6 8 7 7 6 6 3 5 6 9 12 12 14 14 16 16 15 11 13 13 nan
nan nan nan nan nan nan 37 36 nan nan nan nan 14 13 11 18 14 15 12 8 7 10 nan 11 9 10 7 8 5 8 7 7 6 5 2 1 4 8 9 9 11 11 10 14 13 12 12 13 nan
nan nan nan nan nan nan 41 38 nan nan nan nan 14 12 26 27 18 12 14 10 10 11 9 8 11 13 9 10 9 9 10 10 9 7 nan 3 5 7 8 9 7 7 9 10 10 11 14 15 nan
nan nan nan nan nan nan nan nan nan nan nan nan 17 28 25 25 20 13 14 13 9 10 11 10 13 14 11 11 6 3 7 6 6 4 6 2 4 6 8 9 9 10 8 8 10 9 8 9 12
nan nan nan nan nan nan nan nan nan nan nan 21 22 29 27 26 24 21 15 13 11 12 10 11 11 14 13 9 8 11 9 8 8 9 3 3 2 4 7 7 6 6 6 10 10 8 8 7 8
nan nan nan nan nan nan nan nan nan nan nan 24 30 26 35 29 31 19 15 7 9 13 13 12 10 11 11 10 13 5 5 6 9 7 6 6 5 5 7 11 8 5 7 9 8 10 12 10 7
nan nan nan nan nan nan nan nan nan nan nan 30 40 38 31 32 32 16 13 8 7 12 14 13 12 9 9 9 3 5 4 5 4 3 4 4 6 4 6 9 12 6 5 8 9 9 12 12 9
nan nan nan nan nan nan nan nan nan nan nan nan 35 49 35 39 28 14 16 10 6 10 14 15 13 10 8 7 5 3 2 4 0 2 1 1 4 8 10 9 9 9 7 6 8 8 8 14 12
nan nan nan nan nan nan nan nan nan nan nan nan nan 32 30 34 30 18 16 12 9 9 13 16 14 9 7 4 2 3 4 2 1 3 4 5 4 7 12 11 11 11 9 5 7 8 9 12 13
nan nan nan nan nan nan nan nan nan nan nan nan nan nan 21 31 32 18 14 12 11 10 11 13 12 7 4 3 1 1 5 6 1 5 5 5 6 6 11 12 11 12 12 10 8 9 9 11 11
nan nan nan nan nan nan nan nan nan nan nan nan nan nan nan 23 31 20 15 12 13 12 12 11 12 9 6 4 4 5 3 1 3 6 8 9 12 9 11 17 14 12 12 11 10 10 11 11 12
nan nan nan nan nan nan nan nan nan nan nan nan nan nan nan 26 36 29 18 13 14 14 12 12 13 11 6 2 1 2 2 4 7 7 7 9 9 8 8 10 15 14 12 12 14 16 10 10 12
Wind_Direction
nan nan nan 119 122 141 154 122 98 73 10 298 322 327 300 28 88 nan nan nan nan 67 83 24 328 303 311 279 274 303 147 194 173 167 166 140 146 264 304 326 343 343 334 325 320 317 307 287 283
nan nan 192 137 125 nan nan 97 32 64 303 303 294 294 243 nan nan nan nan nan nan 349 104 112 326 319 315 292 319 350 325 143 144 163 150 144 109 308 308 332 333 336 334 329 329 328 326 318 317
nan 12 155 58 281 nan nan 83 14 9 321 311 305 234 280 nan nan nan nan nan nan 335 273 122 319 314 312 326 331 26 355 62 135 122 104 39 28 12 343 347 348 346 351 2 12 16 1 330 313
17 140 124 108 nan 88 nan 113 7 335 297 290 298 nan nan nan nan nan nan nan 307 305 302 352 357 320 342 327 354 9 29 42 80 91 88 81 29 8 15 7 1 17 19 17 23 18 7 343 320
104 118 160 nan nan nan 87 69 326 313 274 292 276 nan nan nan nan nan nan nan 316 303 291 77 14 337 333 336 7 29 45 41 66 83 85 84 68 44 23 33 41 34 29 27 25 25 25 27 40
126 nan nan nan nan nan nan 122 323 301 296 280 276 nan nan nan nan nan nan 313 301 299 285 75 10 325 345 2 11 43 58 68 77 90 89 80 77 80 81 65 45 34 31 32 32 31 36 44 52
145 265 nan nan nan nan 76 nan 303 317 301 289 304 272 nan nan nan nan nan 308 307 304 283 131 113 41 11 21 18 33 51 60 68 73 83 92 96 87 76 69 55 51 45 42 45 40 42 45 60
155 158 nan 332 103 99 nan nan 297 314 298 304 296 292 318 nan nan nan nan 318 312 298 283 130 120 145 144 120 37 52 59 70 81 85 93 95 84 77 66 67 72 68 73 69 49 44 47 47 56
106 171 nan 306 108 104 nan 195 303 284 310 315 348 310 316 nan nan 308 323 323 303 299 316 78 131 126 131 125 106 82 82 80 78 83 81 85 86 83 72 63 54 49 43 60 68 58 38 48 51
137 nan 166 26 263 nan nan nan 298 285 283 282 280 293 nan nan 309 323 335 321 nan 307 328 64 90 106 111 111 114 109 102 102 98 95 93 89 81 62 57 44 45 40 54 63 82 89 71 43 60
nan nan nan nan nan 115 nan nan nan 308 309 304 306 310 316 320 321 318 332 nan nan nan 333 46 77 97 94 133 117 121 112 108 99 88 80 86 86 77 66 47 50 4 261 nan 75 83 75 45 47
nan nan nan nan nan nan nan nan nan 309 331 307 310 nan 310 315 310 318 nan nan nan nan nan nan 84 87 110 130 113 112 108 110 109 91 72 82 72 56 62 42 34 11 30 52 50 57 57 56 54
nan nan nan nan nan nan 114 nan nan 299 324 312 307 318 320 312 317 316 321 nan nan nan nan nan nan 140 120 102 104 109 99 101 85 78 78 201 124 70 50 52 28 319 39 42 42 48 48 49 31
nan nan nan nan nan 80 65 213 nan 293 324 323 322 317 320 316 319 306 334 nan nan nan nan 326 nan 172 141 131 130 112 94 95 83 91 72 354 44 41 50 45 37 30 20 25 33 36 28 35 32
nan nan 143 295 nan 214 328 243 220 230 314 326 332 314 317 318 307 308 307 326 191 nan 269 300 193 182 167 145 139 132 122 89 73 65 48 32 43 52 44 29 41 27 36 26 39 38 26 27 17
nan nan nan nan nan 277 299 244 nan nan 253 319 334 329 328 332 326 318 321 322 167 192 267 273 210 201 176 162 153 145 144 131 nan 42 60 45 28 37 37 13 352 29 34 29 34 29 25 26 41
nan nan nan nan nan 267 315 nan nan nan 313 319 329 340 351 334 343 328 342 341 150 205 270 265 230 224 184 167 156 136 131 128 89 51 59 52 37 29 14 9 18 27 41 42 36 34 28 29 49
nan nan nan nan nan nan 275 nan 314 nan 328 294 311 291 9 0 352 351 344 334 252 216 269 nan 225 239 216 184 172 140 133 128 106 104 59 43 48 23 3 11 17 23 42 46 53 38 43 29 nan
nan nan nan nan nan nan 284 nan nan 311 337 334 326 4 13 29 7 10 23 301 257 225 245 243 236 253 219 191 174 168 138 144 137 127 90 19 24 15 359 14 12 24 29 42 41 29 19 37 nan
nan nan nan nan nan nan 276 295 nan nan nan nan 356 354 43 16 14 351 331 298 262 241 nan 225 230 260 223 206 194 187 171 165 155 143 144 19 358 359 1 359 25 17 17 34 37 24 28 33 nan
nan nan nan nan nan nan 258 257 nan nan nan nan 309 7 23 12 359 6 346 306 266 243 256 248 236 251 233 219 202 192 191 188 182 163 nan 271 355 351 357 356 13 25 23 21 24 15 17 39 nan
nan nan nan nan nan nan nan nan nan nan nan nan 12 349 23 2 353 3 8 318 283 241 248 262 236 242 236 229 208 201 191 188 167 197 211 257 339 341 354 357 3 4 8 5 31 23 31 25 50
nan nan nan nan nan nan nan nan nan nan nan 341 15 1 12 29 355 351 5 344 299 253 254 261 262 247 240 233 220 213 207 194 200 218 240 260 282 336 347 346 352 1 344 353 8 16 14 15 32
nan nan nan nan nan nan nan nan nan nan nan 344 346 338 4 17 4 344 344 331 282 253 263 264 276 268 257 237 226 227 210 207 208 216 226 234 275 343 354 357 351 352 350 352 350 355 358 352 12
nan nan nan nan nan nan nan nan nan nan nan 341 344 349 4 0 0 346 331 324 251 272 288 289 306 302 270 258 231 230 237 265 270 239 234 259 286 340 6 353 1 345 335 351 336 337 351 351 352
nan nan nan nan nan nan nan nan nan nan nan nan 315 333 347 338 342 4 348 329 279 284 302 316 324 323 308 291 326 2 311 232 324 238 210 225 278 318 1 355 337 342 327 313 326 321 335 340 346
nan nan nan nan nan nan nan nan nan nan nan nan nan 299 332 327 331 352 355 338 297 281 307 323 320 332 334 354 277 7 44 84 62 31 264 258 278 281 321 343 333 317 326 315 309 313 325 317 337
nan nan nan nan nan nan nan nan nan nan nan nan nan nan 306 313 323 341 340 339 304 294 295 320 316 330 310 310 260 106 75 58 359 282 277 279 243 242 267 302 320 319 322 343 310 290 299 302 308
nan nan nan nan nan nan nan nan nan nan nan nan nan nan nan 279 305 325 335 322 319 301 277 294 303 314 319 340 47 74 54 24 332 287 295 287 272 263 254 283 298 330 334 316 315 291 288 307 305
nan nan nan nan nan nan nan nan nan nan nan nan nan nan nan 269 289 302 327 323 307 301 291 278 285 302 318 307 198 66 238 325 334 351 334 344 346 302 277 280 309 324 327 310 297 304 313 313 315